Showing default

ARC-1, 40969

Orbit data source: Space-Track

ARC-1, 40969 is a payload satellite owned by Alaska (US) in LEO that was launched on Thu, 08 Oct 2015 UTC via an ATLAS V 401 launch vehicle from the Air Force Western Test Range (AFWTR). Payloads include a variety of satellites, spacecraft, and rockets equipped with specific instruments for various scientific and technological missions. These include communications satellites like Starlink; space stations such as the ISS; scientific satellites like the Hubble; Earth observation satellites from companies like Planet Labs, Umbra, and HawkEye 360; GPS; miniature CubeSats for education and research; and military/defense satellites.

Loading next visibility...
ARC-1 details
Identifier
40969, 2015-058F
Orbit
LEO
Last TLE update20 hours ago
Origin
Flag of USAlaska (US)
ManufacturerAlaska
MissionNon-operational Amateur Technology
Bus & MotorCUBESAT 1U, Unknown motor
Mass1 kg wet, 1 kg dry
Launch date (UTC)
2015-10-08 (9 years ago)
Launch vehicle
ATLAS V 401
Launch site
Air Force Western Test Range (AFWTR)
Object type
Payload
Rocket body
Debris
Shape & HBRBox, 0.1 m
Radar Cross Section0.015 m², Medium (>0.1 m² and < 1m²)

Expand to show TLE details & history

TLE from 20 hours ago
0 ARC-1
1 40969U 15058F   24360.61744692  .00048100  00000-0  25660-2 0  9995
2 40969  64.7729  86.1685 0129307 243.1189 115.6668 15.07886041 34818
Epoch: 2024-12-25T14:49Z
Definitive object data (Epoch: 2024-12-25T14:49:07.413Z)
Latitude-0.00005°
Longitude129.27897°
Altitude584.381 km
Speed7.547 km/s
True Right ascension05h 44m 40s
True Declination0° 00' 00"
Sunlit
Object was in full shadow at TLE epoch
Visualization TLE readout
Latitude-58.04729°
Longitude77.87501°
Altitude503.123 km
Speed7.645 km/s
Apparent Right ascension00h 08m 24s
Apparent Declination-52° 36' 09"
Sunlit
Object is in daylight
Visualization observer readout
Local Sidereal Time10:33:34
Azimuth224.043° SW
Elevation-69.434°
Doppler factor1
Orbital elements
Apogee altitude630.689 km
Perigee altitude451.745 km
Semi-major axis6,919.354 km
Eccentricity0.0129307
Inclination64.7729°
RAAN86.1685°
Arg. of periapsis243.1189°
True anomaly116.99294°
Mean anomaly115.6668°
Eccentric anomaly116.33081°
Mean motion3.7709 °/min
BSTAR0.002566
Orbital period95.47 mins
Loading maneuver chart data...
Loading historical data...
Loading historical data...
Loading historical data...
Loading historical data...
Loading historical data...
Loading historical data...
Loading historical data...

ARC-1 Visibility forecast

Observer location: undefined°, undefined

Span
Click to sort rows by Start time (UTC) header in descending order
Start Az.
Max El. time (UTC)
Max El. Az.
Max El.
End time (UTC)
End Az.
4 mins2024-12-26 15:13:15.709Z9.604° NNE2024-12-26 15:15:15.709Z40.346° NE16.208°2024-12-26 15:17:15.709Z73.128° E
6 mins2024-12-26 16:51:15.709Z315.371° NNW2024-12-26 16:54:15.709Z228.03° WSW39.845°2024-12-26 16:57:15.709Z166.123° S
6 mins2024-12-27 06:45:15.709Z164.828° S2024-12-27 06:47:15.709Z127.036° SE27.875°2024-12-27 06:51:15.709Z53.992° ENE
6 mins2024-12-27 08:23:15.709Z260.83° W2024-12-27 08:26:15.709Z317.541° NNW25.439°2024-12-27 08:29:15.709Z6.153° NNE
|